Stations météo

Publicité
Berus, Allemagne (10704): Température de l'air & dewpoint: 18.02.2019 00:00:00 - 24.02.2019 00:00:00 (CET)Berus, Allemagne (10704): Température de l'air 5cm & Température de l'air -5cm: 18.02.2019 00:00:00 - 24.02.2019 00:00:00 (CET)Berus, Allemagne (10704): Température de l'air -20cm & Température de l'air -100cm: 18.02.2019 00:00:00 - 24.02.2019 00:00:00 (CET)Berus, Allemagne (10704): Vitesse du vent & gusts: 18.02.2019 00:00:00 - 24.02.2019 00:00:00 (CET)Berus, Allemagne (10704): Direction du vent: 18.02.2019 00:00:00 - 24.02.2019 00:00:00 (CET)Berus, Allemagne (10704): reduced air pressure: 18.02.2019 00:00:00 - 24.02.2019 00:00:00 (CET)Berus, Allemagne (10704): visibility: 18.02.2019 00:00:00 - 24.02.2019 00:00:00 (CET)Berus, Allemagne (10704): Ensoleillement: 18.02.2019 00:00:00 - 24.02.2019 00:00:00 (CET)Berus, Allemagne (10704): Quantités de précipitations: 18.02.2019 00:00:00 - 24.02.2019 00:00:00 (CET)
Date & Time tt [°C] td [°C] tt 5cm [°C] tt -5cm [°C] tt -20cm [°C] tt -100cm [°C] ff [km/h] ff [knt] fx [km/h] fx [knt] dd ppp [hPa] vv [km] sd [min] rr [mm]
24.02.2019 00:00:00 2,9 -6,6 1,3 1,4 5,2 5,4 26 14 36 19 NE 1037,1 47 0 0,0
23.02.2019 23:00:00 2,9 -5,8 1,2 1,9 5,5 5,4 25 14 34 19 NE 1037,1 47 0 0,0
23.02.2019 22:00:00 3,4 -4,8 1,9 2,5 5,7 5,4 25 13 33 18 NE 1037,1 42 0 0,0
23.02.2019 21:00:00 3,9 -3,7 2,4 3,1 6,0 5,4 23 13 34 18 NE 1037,0 41 0 0,0
23.02.2019 20:00:00 4,9 -3,4 3,4 3,9 6,2 5,3 24 13 32 17 NE 1036,8 43 0 0,0
23.02.2019 19:00:00 5,8 -3,3 4,0 4,9 6,4 5,3 24 13 35 19 NE 1036,6 45 0 0,0
23.02.2019 18:00:00 7,1 -2,9 5,6 6,4 6,4 5,3 24 13 37 20 NE 1036,0 49 0 0,0
23.02.2019 17:00:00 9,0 -3,5 8,2 8,2 6,3 5,3 24 13 39 21 ENE 1035,3 53 20 0,0
23.02.2019 16:00:00 9,8 -4,2 10,5 9,8 6,1 5,3 24 13 38 20 ENE 1035,2 51 60 0,0
23.02.2019 15:00:00 9,3 -1,3 10,8 10,3 5,8 5,3 22 12 38 21 NE 1035,9 42 60 0,0
23.02.2019 14:00:00 9,2 -2,3 11,4 10,7 5,4 5,3 27 14 42 23 NE 1036,5 53 60 0,0
23.02.2019 13:00:00 8,6 -2,0 11,1 9,9 5,0 5,3 21 11 38 20 NE 1036,5 51 60 0,0
23.02.2019 12:00:00 7,2 -1,8 9,6 8,4 4,7 5,3 27 14 42 23 ENE 1037,0 49 60 0,0
23.02.2019 11:00:00 5,9 0,5 8,8 6,5 4,5 5,3 23 12 40 21 ENE 1037,2 36 60 0,0
23.02.2019 10:00:00 4,2 1,1 6,1 4,5 4,5 5,2 26 14 36 20 NE 1037,6 18 58 0,0
23.02.2019 09:00:00 2,9 1,1 2,9 2,3 4,7 5,2 23 13 31 17 NE 1037,8 11 56 0,0
23.02.2019 08:00:00 2,1 0,8 0,8 1,6 4,8 5,2 24 13 34 18 NE 1037,9 11 0 0,0
23.02.2019 07:00:00 2,1 0,6 0,6 1,8 5,0 5,2 22 12 32 17 NE 1037,6 17 0 0,0
23.02.2019 06:00:00 2,5 1,1 1,0 2,1 5,2 5,2 21 11 26 14 NE 1037,7 14 0 0,0
23.02.2019 05:00:00 2,9 1,9 1,7 2,5 5,4 5,2 19 10 25 13 NE 1038,0 8 0 0,0
23.02.2019 04:00:00 3,4 2,2 1,8 2,8 5,6 5,2 19 10 27 15 NE 1038,0 10 0 0,0
23.02.2019 03:00:00 3,9 2,3 2,2 3,2 5,8 5,2 18 10 23 13 NE 1038,1 13 0 0,0
23.02.2019 02:00:00 4,7 2,5 3,2 3,6 6,0 5,2 18 10 27 14 NE 1037,9 17 0 0,0
23.02.2019 01:00:00 4,9 2,5 3,3 3,8 6,3 5,2 18 10 24 13 NE 1037,7 20 0 0,0
23.02.2019 00:00:00 5,6 2,8 3,6 4,2 6,5 5,2 16 9 29 15 ENE 1037,3 27 0 0,0
22.02.2019 23:00:00 6,0 2,8 4,2 4,7 6,7 5,2 16 9 25 13 NE 1037,8 34 0 0,0
22.02.2019 22:00:00 7,5 3,0 5,7 5,2 7,0 5,2 19 10 27 15 ENE 1037,5 48 0 0,0
22.02.2019 21:00:00 7,1 2,5 5,0 5,8 7,2 5,2 16 9 27 15 NE 1037,2 52 0 0,0
22.02.2019 20:00:00 8,9 2,4 7,1 6,7 7,4 5,1 21 12 32 18 ENE 1036,6 69 0 0,0
22.02.2019 19:00:00 9,6 3,2 7,8 7,8 7,5 5,1 16 9 27 15 NE 1036,0 52 0 0,0
22.02.2019 18:00:00 10,8 3,5 9,4 8,9 7,6 5,1 19 10 27 15 ENE 1035,4 63 48 0,0
22.02.2019 17:00:00 11,6 4,0 10,5 10,7 7,4 5,1 13 7 27 15 NE 1035,3 62 29 0,0
22.02.2019 16:00:00 11,8 4,9 12,1 12,6 7,1 5,1 16 9 26 14 NE 1035,3 55 35 0,0
22.02.2019 15:00:00 11,9 5,9 13,0 13,4 6,7 5,1 11 6 19 11 NNE 1035,3 28 40 0,0
22.02.2019 14:00:00 11,8 6,2 14,4 12,7 6,2 5,1 7 4 20 11 NE 1035,4 22 34 0,0
22.02.2019 13:00:00 10,7 6,3 12,9 10,7 5,9 5,1 8 5 13 7 NE 1035,6 20 2 0,0
22.02.2019 12:00:00 10,3 6,7 11,5 9,4 5,7 5,1 5 3 13 7 NE 1035,7 12 0 0,0
22.02.2019 11:00:00 9,6 6,5 10,4 8,2 5,6 5,1 5 3 13 7 NNW 1035,5 11 0 0,0
22.02.2019 10:00:00 9,1 6,3 9,4 7,4 5,5 5,1 6 4 11 6 N 1035,0 11 0 0,0
22.02.2019 09:00:00 8,4 5,9 8,3 6,3 5,5 5,1 9 5 16 9 NNE 1034,6 10 0 0,0
22.02.2019 08:00:00 8,2 5,8 7,4 5,8 5,5 5,1 9 5 18 10 NW 1033,8 10 0 0,0
22.02.2019 07:00:00 8,0 5,6 7,4 5,8 5,5 5,1 10 5 15 8 NNW 1033,5 10 0 0,0
22.02.2019 06:00:00 8,0 5,5 7,4 5,6 5,5 5,1 10 5 16 9 N 1033,3 12 0 0,0
22.02.2019 05:00:00 7,4 4,9 5,4 5,1 5,6 5,1 10 6 15 8 N 1032,7 11 0 0,0
22.02.2019 04:00:00 8,0 5,2 6,4 5,7 5,6 5,1 8 4 16 9 WNW 1032,6 12 0 0,0
22.02.2019 03:00:00 8,4 5,3 6,9 6,0 5,7 5,1 10 5 16 8 WNW 1032,3 13 0 0,0
22.02.2019 02:00:00 8,5 5,4 7,0 6,0 5,7 5,1 6 3 14 8 W 1032,4 14 0 0,0
22.02.2019 01:00:00 8,6 5,2 7,5 5,9 5,8 5,1 8 5 15 8 WSW 1032,2 15 0 0,0
22.02.2019 00:00:00 9,3 5,3 8,2 6,2 5,8 5,1 9 5 16 8 W 1031,7 19 0 0,0
21.02.2019 23:00:00 9,1 5,1 7,7 6,3 5,9 5,0 9 5 23 12 W 1031,3 19 0 0,0
21.02.2019 22:00:00 9,8 5,0 8,6 6,5 5,9 5,0 15 8 28 15 W 1030,9 25 0 0,0
21.02.2019 21:00:00 9,9 4,8 8,5 6,3 6,0 5,0 16 9 24 13 W 1030,5 26 0 0,0
21.02.2019 20:00:00 9,9 4,5 7,4 6,4 6,1 5,0 13 7 21 12 W 1030,2 28 0 0,0
21.02.2019 19:00:00 10,2 4,4 7,7 7,2 6,2 5,0 9 5 16 8 W 1029,7 29 0 0,0
21.02.2019 18:00:00 11,2 4,4 9,5 8,0 6,1 5,0 9 5 23 12 W 1029,1 33 42 0,0
21.02.2019 17:00:00 12,0 4,3 10,3 9,4 6,0 5,0 12 7 26 14 W 1028,5 40 38 0,0
21.02.2019 16:00:00 12,4 4,7 12,3 10,6 5,6 5,0 13 7 29 15 W 1028,4 33 21 0,0
21.02.2019 15:00:00 12,5 4,8 13,8 12,4 5,1 5,0 14 8 23 12 W 1028,2 27 36 0,0
21.02.2019 14:00:00 13,6 5,1 17,1 12,8 4,5 5,0 13 7 26 14 W 1028,0 29 60 0,0
21.02.2019 13:00:00 11,8 5,1 14,2 11,0 4,0 5,0 13 7 18 10 SW 1028,5 21 57 0,0
21.02.2019 12:00:00 10,0 4,7 13,8 9,5 3,5 5,0 5 3 9 5 SW 1029,3 20 48 0,0
21.02.2019 11:00:00 7,9 4,6 7,9 7,0 3,2 5,0 6 3 14 7 S 1029,4 14 42 0,0
21.02.2019 10:00:00 7,3 4,4 8,8 3,8 3,2 5,0 5 3 9 5 S 1029,1 10 60 0,0
21.02.2019 09:00:00 5,8 4,1 4,3 1,0 3,3 5,0 6 3 9 5 S 1029,0 5 39 0,0
21.02.2019 08:00:00 3,9 3,1 -0,1 1,0 3,4 5,0 8 4 10 5 SW 1028,8 3,0 0 0,0
21.02.2019 07:00:00 3,6 2,7 -0,3 0,9 3,6 5,0 8 4 9 5 S 1028,5 4,5 0 0,0
21.02.2019 06:00:00 4,4 3,0 -1,3 0,8 3,7 5,0 3 2 6 3 SSE 1028,3 8 0 0,0
21.02.2019 05:00:00 4,3 2,8 1,3 1,1 3,9 5,0 6 4 7 4 NNE 1028,4 4,3 0 0,0
21.02.2019 04:00:00 4,9 3,4 -1,2 1,4 4,1 5,0 3 2 5 3 SSW 1028,2 10 0 0,0
21.02.2019 03:00:00 6,0 3,2 -0,6 1,9 4,3 5,0 3 2 5 3 NW 1027,8 31 0 0,0
21.02.2019 02:00:00 5,4 2,9 1,1 2,5 4,4 5,0 3 1 6 4 E 1027,7 21 0 0,0
21.02.2019 01:00:00 6,3 3,3 1,9 2,9 4,6 5,0 5 3 8 4 SSW 1027,6 23 0 0,0
21.02.2019 00:00:00 6,4 3,2 0,9 2,5 4,7 5,0 6 3 8 5 SSW 1027,1 31 0 0,0
20.02.2019 23:00:00 6,6 3,3 0,9 3,2 4,9 5,0 6 4 9 5 SSW 1026,9 29 0 0,0
20.02.2019 22:00:00 6,8 3,5 2,6 3,5 5,2 5,0 6 3 8 4 SSW 1026,7 25 0 0,0
20.02.2019 21:00:00 7,2 3,4 0,5 3,6 5,4 5,0 5 3 8 4 SSW 1026,4 28 0 0,0
20.02.2019 20:00:00 7,2 2,8 0,6 4,5 5,6 5,0 5 3 8 5 S 1026,2 28 0 0,0
20.02.2019 19:00:00 7,7 2,7 2,6 5,7 5,7 5,0 6 3 8 5 SW 1025,8 37 0 0,0
20.02.2019 18:00:00 8,6 2,7 5,0 7,6 5,6 5,0 6 4 14 8 SSW 1025,2 45 16 0,0
20.02.2019 17:00:00 10,1 2,8 9,3 9,6 5,3 4,9 9 5 23 12 WSW 1024,8 49 48 0,0
20.02.2019 16:00:00 11,3 3,4 12,1 11,1 4,9 4,9 11 6 27 14 SW 1024,7 48 60 0,0
20.02.2019 15:00:00 10,3 3,5 11,6 11,6 4,3 4,9 8 4 16 9 SW 1025,0 38 54 0,0
20.02.2019 14:00:00 9,4 3,1 12,2 11,8 3,7 4,9 7 4 11 6 S 1025,3 39 58 0,0
20.02.2019 13:00:00 7,7 3,2 10,5 10,1 3,2 4,9 5 3 8 4 SSW 1025,7 25 59 0,0
20.02.2019 12:00:00 4,2 1,1 7,6 7,4 2,8 4,9 2 1 5 3 NE 1026,5 11 60 0,0
20.02.2019 11:00:00 1,9 0,2 5,8 4,0 2,7 4,9 3 2 7 4 N 1026,4 5 60 0,0
20.02.2019 10:00:00 2,5 0,2 4,0 0,6 2,8 4,9 3 1 6 4 S 1025,9 9 60 0,0
20.02.2019 09:00:00 1,1 0,4 0,1 0,5 2,9 4,9 5 3 9 5 ESE 1025,6 0,5 22 0,0
20.02.2019 08:00:00 -0,1 -0,5 -1,5 0,5 3,0 4,9 6 3 7 4 ENE 1025,3 0,1 0 0,0
20.02.2019 07:00:00 0,5 -0,6 -1,7 0,6 3,1 4,9 0 0 7 4 N 1024,8 1,2 0 0,0
20.02.2019 06:00:00 2,9 2,0 -1,8 0,7 3,2 4,9 8 4 9 5 SW 1024,2 9 0 0,0
20.02.2019 05:00:00 2,7 1,9 -2,6 0,8 3,4 4,9 7 4 10 5 SW 1024,1 10 0 0,0
20.02.2019 04:00:00 2,5 1,5 -2,4 0,9 3,5 4,9 4 2 9 5 SW 1024,0 9 0 0,0
20.02.2019 03:00:00 3,3 2,0 -0,6 1,1 3,6 4,9 6 3 8 4 WSW 1024,2 15 0 0,0
20.02.2019 02:00:00 3,8 1,9 -0,2 1,1 3,8 4,9 6 4 8 4 WSW 1024,2 24 0 0,0
20.02.2019 01:00:00 3,9 1,7 -0,2 1,2 4,0 4,9 5 3 8 5 WSW 1024,1 34 0 0,0
20.02.2019 00:00:00 4,2 1,7 1,1 1,4 4,2 4,9 7 4 10 5 WSW 1024,0 35 0 0,0
19.02.2019 23:00:00 4,5 1,4 1,3 1,8 4,4 4,9 7 4 13 7 WSW 1023,8 43 0 0,0
19.02.2019 22:00:00 4,4 1,1 1,7 2,2 4,7 4,9 11 6 14 7 W 1023,8 52 0 0,0
19.02.2019 21:00:00 4,0 0,9 0,9 2,5 4,9 4,9 12 6 14 7 WSW 1023,8 50 0 0,0
19.02.2019 20:00:00 3,7 0,6 0,0 3,1 5,1 4,9 10 5 15 8 SW 1023,5 53 0 0,0
19.02.2019 19:00:00 4,7 0,8 1,5 4,2 5,3 4,9 10 5 19 11 WSW 1022,9 51 0 0,0
19.02.2019 18:00:00 6,7 1,8 5,0 5,8 5,3 4,9 15 8 24 13 WSW 1022,4 59 5 0,0
19.02.2019 17:00:00 7,5 2,3 6,6 7,3 5,2 4,8 14 7 28 15 SW 1022,4 59 8 0,0
19.02.2019 16:00:00 8,8 3,0 8,8 8,3 5,0 4,8 16 9 27 15 WSW 1022,2 55 9 0,0
19.02.2019 15:00:00 8,3 3,0 8,8 8,7 4,7 4,8 16 9 24 13 W 1022,1 52 11 0,0
19.02.2019 14:00:00 7,8 2,4 8,9 8,5 4,4 4,8 16 8 24 13 W 1022,4 59 0 0,0
19.02.2019 13:00:00 8,0 3,3 9,2 9,5 4,0 4,8 14 8 23 12 W 1022,7 63 22 0,0
19.02.2019 12:00:00 7,9 4,7 10,4 7,6 3,7 4,8 9 5 17 9 WSW 1022,8 35 14 0,0
19.02.2019 11:00:00 4,9 3,7 5,2 4,9 3,6 4,8 9 5 11 6 WSW 1022,8 16 0 0,1
19.02.2019 10:00:00 4,8 3,4 5,0 4,1 3,5 4,8 6 4 16 9 W 1022,2 15 0 0,3
19.02.2019 09:00:00 4,4 2,3 3,9 3,3 3,5 4,8 12 6 24 13 WSW 1021,7 20 0 0,3
19.02.2019 08:00:00 5,2 1,2 4,3 2,9 3,5 4,8 13 7 22 12 WSW 1020,7 42 0 0,0
19.02.2019 07:00:00 5,2 0,9 4,4 2,5 3,5 4,8 15 8 22 12 SW 1019,8 47 0 0,0
19.02.2019 06:00:00 5,0 0,6 3,9 2,0 3,6 4,8 14 8 25 14 SW 1019,7 47 0 0,0
19.02.2019 05:00:00 5,4 0,6 4,1 2,2 3,7 4,8 16 9 26 14 SW 1019,5 51 0 0,0
19.02.2019 04:00:00 5,6 0,3 3,6 1,9 3,8 4,8 18 10 23 13 SW 1019,2 48 0 0,0
19.02.2019 03:00:00 5,6 0,1 3,3 1,8 4,0 4,8 16 9 23 13 SW 1019,5 53 0 0,0
19.02.2019 02:00:00 5,5 0,0 2,6 1,9 4,1 4,8 17 9 27 15 SW 1019,6 45 0 0,0
19.02.2019 01:00:00 5,3 0,2 1,6 2,0 4,3 4,8 16 9 24 13 SSW 1019,6 53 0 0,0
19.02.2019 00:00:00 6,3 0,4 3,3 2,4 4,4 4,8 16 9 28 15 SSW 1019,3 53 0 0,0
18.02.2019 23:00:00 7,0 0,3 4,5 2,8 4,6 4,8 19 10 36 19 SW 1019,3 46 0 0,0
18.02.2019 22:00:00 7,0 0,3 3,7 2,9 4,8 4,8 17 9 25 13 SW 1019,2 65 0 0,0
18.02.2019 21:00:00 6,9 0,2 2,7 3,2 5,1 4,8 17 9 21 11 SSW 1019,2 61 0 0,0
18.02.2019 20:00:00 7,4 0,2 2,2 4,0 5,2 4,8 13 7 19 10 SSW 1019,1 53 0 0,0
18.02.2019 19:00:00 8,7 0,2 5,1 5,0 5,3 4,7 14 8 26 14 SSW 1018,9 64 0 0,0
18.02.2019 18:00:00 10,1 0,0 7,9 6,5 5,3 4,7 21 11 36 19 SSW 1018,4 70 28 0,0
18.02.2019 17:00:00 12,1 -1,6 10,2 8,2 5,1 4,7 22 12 35 19 SSW 1018,0 75 59 0,0
18.02.2019 16:00:00 13,3 -2,0 12,8 9,7 4,8 4,7 23 13 39 21 SSW 1018,1 75 60 0,0
18.02.2019 15:00:00 14,1 -1,5 15,1 10,7 4,3 4,7 21 12 41 22 S 1018,1 75 60 0,0
18.02.2019 14:00:00 13,7 -1,1 14,9 10,8 3,8 4,7 21 11 54 29 S 1018,6 67 60 0,0
18.02.2019 13:00:00 13,2 -0,8 15,0 10,2 3,3 4,7 27 15 42 23 SSW 1019,5 75 60 0,0
18.02.2019 12:00:00 10,6 1,3 12,7 8,0 2,9 4,7 13 7 24 13 S 1020,8 63 60 0,0
18.02.2019 11:00:00 7,4 0,3 9,6 4,6 2,8 4,7 9 5 15 8 SSE 1021,8 32 60 0,0
18.02.2019 10:00:00 6,1 -0,7 7,3 0,8 2,8 4,7 5 3 13 7 SSE 1022,3 28 60 0,0
18.02.2019 09:00:00 4,7 -0,8 2,3 0,6 2,9 4,7 9 5 16 8 SSE 1022,6 38 52 0,0
18.02.2019 08:00:00 3,4 -1,5 -0,2 0,6 3,0 4,7 11 6 15 8 SSE 1022,6 37 0 0,0
18.02.2019 07:00:00 3,9 -1,6 0,8 0,7 3,1 4,7 10 6 15 8 SSE 1022,5 44 0 0,0
18.02.2019 06:00:00 4,6 -1,6 0,9 0,8 3,3 4,7 13 7 16 8 S 1022,5 48 0 0,0
18.02.2019 05:00:00 4,8 -2,0 0,5 0,9 3,4 4,7 12 6 16 9 S 1022,5 52 0 0,0
18.02.2019 04:00:00 4,8 -2,3 1,7 0,9 3,6 4,7 11 6 14 8 SSE 1022,6 43 0 0,0
18.02.2019 03:00:00 5,8 -2,5 0,5 0,9 3,8 4,7 8 4 14 8 SSE 1022,8 57 0 0,0
18.02.2019 02:00:00 5,7 -2,3 1,1 0,9 4,0 4,7 6 4 13 7 ESE 1023,0 41 0 0,0
18.02.2019 01:00:00 7,5 -2,6 1,8 1,3 4,2 4,7 9 5 14 8 SSE 1022,7 55 0 0,0
18.02.2019 00:00:00 8,4 -2,5 3,4 1,6 4,5 4,7 13 7 14 8 S 1022,6 64 0 0,0

tt = Température de l'air
td = dewpoint
tt 5cm = Température de l'air 5cm
tt -5cm = Température de l'air -5cm
tt -20cm = Température de l'air -20cm
tt -100cm = Température de l'air -100cm
ff = Vitesse du vent
fx = gusts
dd = Direction du vent
ppp = reduced air pressure
vv = visibility
sd = Ensoleillement
rr = Quantités de précipitations

stations d'obs. à proximité